Newport Airport, OR

3:35 AM PDT on May 26, 2017 (GMT -0700)
Newport Municipal

Weather History for KONP - September, 2013

Change the Weather History Date:

Wednesday, September 18, 2013

  Actual Average Record
Temperature  
Mean Temperature 56 °F -  
Max Temperature 62 °F 61 °F 68 °F (1997)
Min Temperature 51 °F 49 °F 46 °F (2005)
Degree Days  
Heating Degree Days 8    
Growing Degree Days 6 (Base 50)    
Moisture  
Dew Point 55 °F    
Average Humidity 91    
Maximum Humidity 100    
Minimum Humidity 77    
Precipitation  
Precipitation 0.03 in - - ()
Sea Level Pressure  
Sea Level Pressure 30.09 in    
Wind  
Wind Speed 4 mph (WSW)    
Max Wind Speed 12 mph    
Max Gust Speed -    
Visibility 9 miles    
Events Fog , Rain    
Averages and records for this station are not official NWS values.
T = Trace of Precipitation, MM = Missing Value Source: NWS Daily Summary

Daily Weather History Graph

Daily Weather History Graph

Search for Another Location

Airport or City:

Trip Planner

Search our weather history database for the weather conditions in past years. The results will help you decide how hot, cold, wet, or windy it might be!

Date:

Astronomy

Sep. 18, 2013 Rise Set
Actual Time 6:59 AM PDT 7:20 PM PDT
Civil Twilight 6:29 AM PDT 7:49 PM PDT
Nautical Twilight 5:55 AM PDT 8:23 PM PDT
Astronomical Twilight 5:19 AM PDT 8:59 PM PDT
Moon 6:46 PM PDT (9/18) 6:07 AM PDT (9/18)
Length of Visible Light 13h 19m
Length of Day
12h 21m
Waxing Gibbous, 99% of the Moon is Illuminated
Sep 18
Waxing Gibbous
Sep 19
Full
Sep 26
Last Quarter
Oct 4
New
Oct 11
First Quarter

Hourly Weather History & Observations

Time (PDT) Temp. Dew Point Humidity Pressure Visibility Wind Dir Wind Speed Gust Speed Precip Events Conditions
12:15 AM 55.4 °F 55.4 °F 100% 30.07 in 10.0 mi South 3.5 mph - N/A   Mostly Cloudy
12:35 AM 55.4 °F 53.6 °F 94% 30.07 in 10.0 mi South 5.8 mph - N/A   Scattered Clouds
12:55 AM 55.4 °F 53.6 °F 94% 30.08 in 7.0 mi SSE 3.5 mph - N/A   Clear
1:15 AM 55.4 °F 53.6 °F 94% 30.08 in 7.0 mi Calm Calm - N/A   Clear
1:35 AM 53.6 °F 53.6 °F 100% 30.08 in 10.0 mi Calm Calm - N/A   Scattered Clouds
1:55 AM 53.6 °F 53.6 °F 100% 30.09 in 10.0 mi Calm Calm - N/A   Scattered Clouds
2:15 AM 53.6 °F 53.6 °F 100% 30.09 in 10.0 mi SSW 3.5 mph - N/A   Scattered Clouds
2:35 AM 53.6 °F 53.6 °F 100% 30.09 in 7.0 mi South 3.5 mph - N/A   Clear
2:55 AM 53.6 °F 53.6 °F 100% 30.09 in 7.0 mi SSE 3.5 mph - N/A   Clear
3:15 AM 53.6 °F 51.8 °F 94% 30.09 in 7.0 mi Calm Calm - N/A   Scattered Clouds
3:35 AM 53.6 °F 53.6 °F 100% 30.09 in 7.0 mi Calm Calm - N/A   Mostly Cloudy
3:55 AM 53.6 °F 53.6 °F 100% 30.09 in 7.0 mi Calm Calm - N/A   Mostly Cloudy
4:15 AM 53.6 °F 53.6 °F 100% 30.10 in 10.0 mi South 4.6 mph - N/A   Scattered Clouds
4:35 AM 53.6 °F 53.6 °F 100% 30.10 in 7.0 mi SSE 4.6 mph - N/A   Mostly Cloudy
4:55 AM 53.6 °F 53.6 °F 100% 30.10 in 7.0 mi South 4.6 mph - N/A   Scattered Clouds
5:15 AM 53.6 °F 53.6 °F 100% 30.10 in 7.0 mi SSE 3.5 mph - N/A   Scattered Clouds
5:35 AM 53.6 °F 53.6 °F 100% 30.10 in 7.0 mi SSE 3.5 mph - N/A   Scattered Clouds
5:55 AM 53.6 °F 53.6 °F 100% 30.10 in 10.0 mi SSE 5.8 mph - N/A   Clear
6:15 AM 53.6 °F 53.6 °F 100% 30.11 in 10.0 mi SSE 4.6 mph - N/A   Mostly Cloudy
6:35 AM 55.4 °F 55.4 °F 100% 30.11 in 7.0 mi SSE 4.6 mph - N/A   Drizzle
6:55 AM 55.4 °F 55.4 °F 100% 30.11 in 7.0 mi South 3.5 mph - 0.02 in Rain Light Rain
7:15 AM 55.4 °F 53.6 °F 94% 30.11 in 10.0 mi Calm Calm - N/A   Mostly Cloudy
7:35 AM 53.6 °F 53.6 °F 100% 30.12 in 7.0 mi East 3.5 mph - N/A   Scattered Clouds
7:55 AM 53.6 °F 53.6 °F 100% 30.12 in 2.0 mi East 3.5 mph - N/A   Mostly Cloudy
8:15 AM 53.6 °F 53.6 °F 100% 30.12 in 0.5 mi East 4.6 mph - 0.01 in Fog Fog
8:35 AM 55.4 °F 55.4 °F 100% 30.12 in 10.0 mi East 4.6 mph - 0.01 in   Scattered Clouds
8:55 AM 57.2 °F 55.4 °F 94% 30.12 in 10.0 mi Calm Calm - 0.01 in   Clear
9:15 AM 59.0 °F 57.2 °F 94% 30.13 in 10.0 mi Calm Calm - N/A   Clear
9:35 AM 60.8 °F 55.4 °F 82% 30.13 in 10.0 mi SW 3.5 mph - N/A   Clear
9:55 AM 60.8 °F 55.4 °F 82% 30.13 in 5.0 mi Calm Calm - N/A   Clear
10:15 AM 60.8 °F 55.4 °F 82% 30.14 in 10.0 mi WSW 3.5 mph - N/A   Clear
10:35 AM 60.8 °F 55.4 °F 82% 30.14 in 7.0 mi WSW 4.6 mph - N/A   Clear
10:55 AM 60.8 °F 55.4 °F 82% 30.14 in 10.0 mi WSW 4.6 mph - N/A   Clear
11:15 AM 60.8 °F 55.4 °F 82% 30.14 in 10.0 mi WSW 5.8 mph - N/A   Clear
11:35 AM 62.6 °F 55.4 °F 77% 30.13 in 10.0 mi SW 5.8 mph - N/A   Clear
11:55 AM 60.8 °F 55.4 °F 82% 30.13 in 10.0 mi West 5.8 mph - N/A   Clear
12:15 PM 60.8 °F 55.4 °F 82% 30.13 in 10.0 mi WSW 6.9 mph - N/A   Clear
12:35 PM 62.6 °F 57.2 °F 82% 30.12 in 10.0 mi WSW 4.6 mph - N/A   Clear
12:55 PM 62.6 °F 57.2 °F 82% 30.12 in 10.0 mi West 6.9 mph - N/A   Clear
1:15 PM 60.8 °F 57.2 °F 88% 30.12 in 10.0 mi West 6.9 mph - N/A   Clear
1:35 PM 62.6 °F 59.0 °F 88% 30.11 in 10.0 mi WNW 5.8 mph - N/A   Clear
1:55 PM 62.6 °F 59.0 °F 88% 30.11 in 10.0 mi West 6.9 mph - N/A   Clear
2:15 PM 62.6 °F 59.0 °F 88% 30.10 in 10.0 mi WNW 6.9 mph - N/A   Clear
2:35 PM 62.6 °F 59.0 °F 88% 30.10 in 10.0 mi NW 6.9 mph - N/A   Scattered Clouds
2:55 PM 62.6 °F 59.0 °F 88% 30.09 in 10.0 mi NW 8.1 mph - N/A   Scattered Clouds
3:15 PM 62.6 °F 59.0 °F 88% 30.09 in 10.0 mi NW 9.2 mph - N/A   Clear
3:35 PM 62.6 °F 59.0 °F 88% 30.08 in 10.0 mi NW 9.2 mph - N/A   Clear
3:55 PM 62.6 °F 55.4 °F 77% 30.08 in 10.0 mi NNW 10.4 mph - N/A   Clear
4:15 PM 62.6 °F 57.2 °F 82% 30.08 in 10.0 mi NNW 9.2 mph - N/A   Clear
4:35 PM 62.6 °F 57.2 °F 82% 30.07 in 10.0 mi NNW 9.2 mph - N/A   Clear
4:55 PM 62.6 °F 57.2 °F 82% 30.07 in 10.0 mi NW 10.4 mph - N/A   Clear
5:15 PM 62.6 °F 57.2 °F 82% 30.07 in 10.0 mi NNW 11.5 mph - N/A   Clear
5:35 PM 62.6 °F 57.2 °F 82% 30.07 in 10.0 mi NNW 9.2 mph - N/A   Clear
5:55 PM 62.6 °F 55.4 °F 77% 30.06 in 10.0 mi North 9.2 mph - N/A   Clear
6:15 PM 60.8 °F 55.4 °F 82% 30.06 in 10.0 mi NNW 8.1 mph - N/A   Clear
6:35 PM 60.8 °F 55.4 °F 82% 30.06 in 10.0 mi North 6.9 mph - N/A   Clear
6:55 PM 60.8 °F 55.4 °F 82% 30.05 in 7.0 mi NNW 5.8 mph - N/A   Clear
7:15 PM 59.0 °F 53.6 °F 82% 30.05 in 5.0 mi NNW 4.6 mph - N/A   Haze
7:35 PM 57.2 °F 53.6 °F 88% 30.05 in 5.0 mi North 4.6 mph - N/A   Clear
7:55 PM 57.2 °F 53.6 °F 88% 30.06 in 5.0 mi Calm Calm - N/A   Clear
8:15 PM 55.4 °F 53.6 °F 94% 30.06 in 7.0 mi Calm Calm - N/A   Clear
8:35 PM 53.6 °F 51.8 °F 94% 30.06 in 7.0 mi Calm Calm - N/A   Clear
8:55 PM 53.6 °F 51.8 °F 94% 30.06 in 7.0 mi Calm Calm - N/A   Clear
9:15 PM 51.8 °F 51.8 °F 100% 30.06 in 7.0 mi East 3.5 mph - N/A   Clear
9:35 PM 51.8 °F 51.8 °F 100% 30.06 in 7.0 mi Calm Calm - N/A   Clear
9:55 PM 51.8 °F 51.8 °F 100% 30.05 in 7.0 mi East 5.8 mph - N/A   Clear
10:15 PM 53.6 °F 53.6 °F 100% - 10.0 mi Calm Calm - N/A   Clear
10:35 PM 53.6 °F 51.8 °F 94% - 10.0 mi East 3.5 mph - N/A   Clear
10:55 PM 53.6 °F 51.8 °F 94% 30.03 in 10.0 mi Calm Calm - N/A   Clear
11:15 PM 53.6 °F 51.8 °F 94% 30.03 in 10.0 mi East 3.5 mph - N/A   Clear
11:35 PM 53.6 °F 51.8 °F 94% 30.03 in 10.0 mi East 5.8 mph - N/A   Clear
11:55 PM 53.6 °F 51.8 °F 94% 30.02 in 10.0 mi Calm Calm - N/A   Clear